Regional Weather Roundup
Issued by NWS

Home | Current Version | Previous Version | Text Only | Print | Product List | Glossary On
Versions: 1 2 3 4 5 6 7 8 9 10 11 12 13 14 15 16 17 18 19 20 21 22 23 24 25 26 27 28 29 30 31 32 33 34 35 36 37 38 39 40 41 42 43 44 45 46 47 48 49 50
000
ASUS45 KREV 041910
RWRNV
NEVADA REGIONAL WEATHER ROUNDUP
NATIONAL WEATHER SERVICE RENO NV
1200 PM PDT SAT JUL 04 2015

NOTE: "FAIR" INDICATES FEW OR NO CLOUDS BELOW 12,000 FEET WITH NO
SIGNIFICANT WEATHER AND/OR OBSTRUCTIONS TO VISIBILITY.

NVZ001-003-004-042000-
WESTERN NEVADA

CITY           SKY/WX    TMP DP  RH WIND       PRES   REMARKS
RENO           CLOUDY    80  56  43 SW9       30.07R
CARSON CITY    FAIR      73  50  43 NW5       30.09F
MINDEN         FAIR      72  55  56 NW12G18   30.09F
SLIDE MTN        N/A     55  50  82 SW8         N/A
PYRAMID LAKE     N/A     79 N/A N/A N3          N/A
FALLON         CLOUDY    90  50  25 S10       30.00S
LOVELOCK       CLOUDY    89  52  28 S7        29.97F
HAWTHORNE      MOSUNNY   82  55  39 S7        30.05R
$$

NVZ002-CAZ072-073-042000-
NORTHERN AND CENTRAL SIERRA

CITY           SKY/WX    TMP DP  RH WIND       PRES   REMARKS
S. LAKE TAHOE  CLOUDY    73  53  49 NE8       30.20S
TRUCKEE        TSTM      61  55  82 N6        30.23R
SQUAW VLY 8000 NOT AVBL
SUSANVILLE     SUNNY     88  52  29 E7        30.01S
BLUE CANYON    PTSUNNY   79  53  40 VRB5      30.14R
MAMMOTH LAKES  PTSUNNY   72  41  33 E13G18    30.27F
BRIDGEPORT     FAIR      75  43  31 NE9       30.20R
$$

NVZ030-031-036-042000-
NORTHERN NEVADA

CITY           SKY/WX    TMP DP  RH WIND       PRES   REMARKS
ELKO           MOSUNNY   90  46  21 S6        30.00F
WINNEMUCCA     MOSUNNY   92  45  19 VRB5      29.97
WENDOVER       MOSUNNY   95  45  17 E12       29.94F
$$

NVZ035-037-042000-
CENTRAL NEVADA

CITY           SKY/WX    TMP DP  RH WIND       PRES   REMARKS
ELY            CLOUDY    83  40  21 SW14G22   30.15S
EUREKA           N/A     78  51  38 W14G22    30.13R
$$

NVZ013-014-042000-
SOUTH CENTRAL NEVADA

CITY           SKY/WX    TMP DP  RH WIND       PRES   REMARKS
TONOPAH        CLOUDY    74  54  49 N12       30.15R
$$

NVZ017-020-022-042000-
SOUTHERN NEVADA

CITY           SKY/WX    TMP DP  RH WIND       PRES   REMARKS
LAS VEGAS      CLOUDY    96  43  16 W3        29.84S
N. LAS VEGAS   CLOUDY    95  45  17 NW14      29.88R
NELLIS AFB     CLOUDY    98  46  16 W16       29.85S
HENDERSON      CLOUDY    96  48  19 NW6       29.92S
MERCURY        CLOUDY    87  44  22 NE15      29.99S
$$


USA.gov is the U.S. government's official web portal to all federal, state and local government web resources and services.